Weather History for KISO - October, 2012

Change the Weather History Date:

Tuesday, October 30, 2012

  Actual Average Record
Temperature  
Mean Temperature 46 °F -  
Max Temperature 50 °F 69 °F 86 °F (1996)
Min Temperature 42 °F 47 °F 30 °F (2008)
Degree Days  
Heating Degree Days 19    
Moisture  
Dew Point 38 °F    
Average Humidity 76    
Maximum Humidity 87    
Minimum Humidity 62    
Precipitation  
Precipitation 0.03 in - - ()
Sea Level Pressure  
Sea Level Pressure 29.47 in    
Wind  
Wind Speed 12 mph (SW)    
Max Wind Speed 16 mph    
Max Gust Speed 25 mph    
Visibility 10 miles    
Events Rain    
Averages and records for this station are not official NWS values.
T = Trace of Precipitation, MM = Missing Value Source: NWS Daily Summary

Daily Weather History Graph

Daily Weather History Graph

Search for Another Location

Airport or City:

Trip Planner

Search our weather history database for the weather conditions in past years. The results will help you decide how hot, cold, wet, or windy it might be!

Date:

Astronomy

Oct. 30, 2012 Rise Set
Actual Time 7:30 AM EDT 6:17 PM EDT
Civil Twilight 7:04 AM EDT 6:43 PM EDT
Nautical Twilight 6:34 AM EDT 7:13 PM EDT
Astronomical Twilight 6:04 AM EDT 7:42 PM EDT
Moon 6:48 PM EDT (10/30) 8:12 AM EDT (10/30)
Length of Visible Light 11h 39m
Length of Day
10h 46m
Full, 99% of the Moon is Illuminated
Oct 30
Full
Nov 6
Last Quarter
Nov 13
New
Nov 20
First Quarter
Nov 28
Full

Hourly Weather History & Observations

Time (EDT) Temp. Windchill Dew Point Humidity Pressure Visibility Wind Dir Wind Speed Gust Speed Precip Events Conditions
12:15 AM 42.8 °F 35.4 °F 39.2 °F 87% 29.34 in 10.0 mi WSW 15.0 mph 25.3 mph N/A Rain Light Rain
12:35 AM 42.8 °F 35.4 °F 39.2 °F 87% 29.34 in 10.0 mi WSW 15.0 mph 21.9 mph 0.01 in Rain Light Rain
12:55 AM 42.8 °F 35.1 °F 39.2 °F 87% 29.35 in 10.0 mi WSW 16.1 mph 23.0 mph 0.01 in Rain Light Rain
1:15 AM 42.8 °F 35.4 °F 39.2 °F 87% 29.35 in 10.0 mi WSW 15.0 mph 21.9 mph N/A Rain Rain
1:35 AM 42.8 °F 35.8 °F 37.4 °F 81% 29.35 in 10.0 mi SW 13.8 mph 24.2 mph N/A   Drizzle
1:55 AM 42.8 °F 36.6 °F 37.4 °F 81% 29.34 in 10.0 mi SW 11.5 mph 19.6 mph N/A   Drizzle
2:15 AM 42.8 °F 36.6 °F 37.4 °F 81% 29.35 in 10.0 mi WSW 11.5 mph 24.2 mph N/A   Drizzle
2:35 AM 42.8 °F 35.8 °F 37.4 °F 81% 29.35 in 10.0 mi SW 13.8 mph 23.0 mph N/A Rain Rain
2:55 AM 42.8 °F 36.6 °F 37.4 °F 81% 29.36 in 10.0 mi WSW 11.5 mph 19.6 mph N/A Rain Light Rain
3:55 AM 42.8 °F 37.0 °F 39.2 °F 87% 29.36 in 10.0 mi SW 10.4 mph 17.3 mph 0.02 in Rain Light Rain
4:15 AM 42.8 °F 36.6 °F 39.2 °F 87% 29.36 in 10.0 mi WSW 11.5 mph 24.2 mph N/A   Drizzle
4:55 AM 42.8 °F 37.0 °F 37.4 °F 81% 29.37 in 10.0 mi SW 10.4 mph 20.7 mph N/A   Drizzle
5:15 AM 42.8 °F 35.8 °F 37.4 °F 81% 29.37 in 10.0 mi SW 13.8 mph 23.0 mph N/A   Light Drizzle
5:35 AM 42.8 °F 35.8 °F 37.4 °F 81% 29.38 in 10.0 mi WSW 13.8 mph 25.3 mph N/A Rain Light Rain
5:55 AM 42.8 °F 36.2 °F 37.4 °F 81% 29.38 in 10.0 mi WSW 12.7 mph 25.3 mph N/A   Scattered Clouds
6:15 AM 42.8 °F 37.0 °F 37.4 °F 81% 29.39 in 10.0 mi SW 10.4 mph 19.6 mph N/A   Scattered Clouds
6:35 AM 42.8 °F 36.6 °F 37.4 °F 81% 29.40 in 10.0 mi SW 11.5 mph 23.0 mph N/A   Scattered Clouds
6:55 AM 42.8 °F 36.6 °F 37.4 °F 81% 29.41 in 10.0 mi SW 11.5 mph 19.6 mph N/A   Scattered Clouds
6:56 AM 44.6 °F 39.2 °F 37.4 °F 76% 29.41 in 10.0 mi SW 10.4 mph 19.6 mph N/A   Scattered Clouds
8:56 AM 42.8 °F 36.6 °F 39.2 °F 87% 29.46 in 10.0 mi SW 11.5 mph 18.4 mph N/A   Drizzle
9:56 AM 46.4 °F 41.5 °F 39.2 °F 76% 29.47 in 10.0 mi SW 10.4 mph - N/A   Clear
10:56 AM 48.2 °F - 35.6 °F 62% 29.48 in 10.0 mi WSW 11.5 mph 23.0 mph N/A   Scattered Clouds
11:56 AM 48.2 °F - 39.2 °F 71% 29.49 in 7.0 mi WSW 11.5 mph - N/A   Light Drizzle
12:56 PM 46.4 °F 42.4 °F 39.2 °F 76% 29.49 in 10.0 mi West 8.1 mph 18.4 mph N/A   Drizzle
1:56 PM 48.2 °F - 42.8 °F 82% 29.48 in 10.0 mi SSW 15.0 mph 19.6 mph N/A   Scattered Clouds
2:56 PM 50.0 °F - 39.2 °F 66% 29.48 in 10.0 mi SW 16.1 mph 23.0 mph N/A   Clear
3:50 PM 50.0 °F - 39.2 °F 66% 29.48 in 10.0 mi SSW 10.4 mph - N/A   Mostly Cloudy
4:56 PM 50.0 °F - 41.0 °F 71% 29.50 in 10.0 mi SW 9.2 mph - N/A   Scattered Clouds
5:56 PM 48.2 °F - 37.4 °F 66% 29.53 in 10.0 mi West 4.6 mph - N/A   Scattered Clouds
6:56 PM 48.2 °F - 39.2 °F 71% 29.56 in 10.0 mi West 3.5 mph - N/A   Mostly Cloudy
7:56 PM 48.2 °F - 39.2 °F 71% 29.58 in 10.0 mi SW 6.9 mph - N/A   Clear
8:56 PM 48.2 °F - 39.2 °F 71% 29.60 in 10.0 mi SW 6.9 mph - N/A   Clear
9:15 PM 48.2 °F - 37.4 °F 66% 29.60 in 10.0 mi WSW 6.9 mph - N/A   Clear
9:35 PM 48.2 °F - 37.4 °F 66% 29.61 in 10.0 mi WSW 8.1 mph - N/A   Clear
9:55 PM 46.4 °F 42.9 °F 37.4 °F 71% 29.62 in 10.0 mi WSW 6.9 mph - N/A   Clear
10:15 PM 48.2 °F - 35.6 °F 62% 29.62 in 10.0 mi SW 6.9 mph - N/A   Clear
10:35 PM 46.4 °F 42.4 °F 35.6 °F 66% 29.62 in 10.0 mi SW 8.1 mph - N/A   Clear
10:55 PM 46.4 °F 42.9 °F 35.6 °F 66% 29.62 in 10.0 mi SW 6.9 mph - N/A   Clear
11:15 PM 46.4 °F 42.9 °F 35.6 °F 66% 29.62 in 10.0 mi SW 6.9 mph - N/A   Clear
11:35 PM 46.4 °F 41.9 °F 35.6 °F 66% 29.62 in 10.0 mi WSW 9.2 mph - N/A   Clear
11:55 PM 46.4 °F 42.9 °F 35.6 °F 66% 29.62 in 10.0 mi SW 6.9 mph - N/A   Clear